DLH10B EDDF-EDDS

Flight info

Callsign DLH10B
Flight time 0h 19m
Altitude 17000
Route ANEKI2L/18 ANEKI Y163 NEKLO Y171 INKAM N850 KRH T128 BADSO BADSO2A
Aircraft A319/M-SDE3FGHIRWY/LB1

Departure

Time 2026-04-18 09:21
Airport Frankfurt Main Airport (EDDF)

Arrival

Time 2026-04-18 09:40
Airport Stuttgart Airport (EDDS)
Time Latitude Longitude Altitude Speed Heading
2026-04-18 08:44 50.04704 8.56844 356 ft 0 kts 294°
2026-04-18 09:05 50.04701 8.56857 363 ft 3 kts 294°
2026-04-18 09:06 50.04693 8.56886 361 ft 3 kts 294°
2026-04-18 09:06 50.04684 8.56913 362 ft 3 kts 284°
2026-04-18 09:06 50.04684 8.56942 362 ft 3 kts 241°
2026-04-18 09:06 50.04695 8.56964 364 ft 2 kts 207°
2026-04-18 09:07 50.04698 8.56966 365 ft 1 kts 204°
2026-04-18 09:07 50.04683 8.56955 362 ft 3 kts 204°
2026-04-18 09:07 50.04665 8.56942 361 ft 3 kts 204°
2026-04-18 09:07 50.04649 8.56931 362 ft 2 kts 204°
2026-04-18 09:08 50.04646 8.56929 362 ft 0 kts 204°
2026-04-18 09:10 50.04637 8.56923 361 ft 3 kts 202°
2026-04-18 09:10 50.04607 8.56910 356 ft 5 kts 190°
2026-04-18 09:10 50.04575 8.56900 358 ft 3 kts 193°
2026-04-18 09:11 50.04562 8.56895 361 ft 3 kts 194°
2026-04-18 09:11 50.04520 8.56879 359 ft 8 kts 192°
2026-04-18 09:11 50.04460 8.56844 361 ft 11 kts 220°
2026-04-18 09:11 50.04430 8.56733 360 ft 12 kts 250°
2026-04-18 09:12 50.04397 8.56601 363 ft 14 kts 249°
2026-04-18 09:12 50.04365 8.56468 361 ft 15 kts 250°
2026-04-18 09:12 50.04324 8.56295 360 ft 18 kts 242°
2026-04-18 09:12 50.04280 8.56107 362 ft 19 kts 249°
2026-04-18 09:13 50.04232 8.55908 358 ft 20 kts 250°
2026-04-18 09:13 50.04181 8.55699 356 ft 21 kts 249°
2026-04-18 09:13 50.04131 8.55483 353 ft 22 kts 251°
2026-04-18 09:13 50.04078 8.55262 360 ft 22 kts 250°
2026-04-18 09:14 50.04025 8.55042 355 ft 22 kts 249°
2026-04-18 09:14 50.03972 8.54818 354 ft 21 kts 250°
2026-04-18 09:14 50.03921 8.54609 354 ft 20 kts 249°
2026-04-18 09:14 50.03875 8.54418 353 ft 14 kts 250°
2026-04-18 09:15 50.03820 8.54281 351 ft 15 kts 233°
2026-04-18 09:15 50.03777 8.54125 348 ft 16 kts 249°
2026-04-18 09:15 50.03735 8.53953 350 ft 18 kts 250°
2026-04-18 09:15 50.03690 8.53764 351 ft 19 kts 250°
2026-04-18 09:16 50.03640 8.53562 339 ft 21 kts 247°
2026-04-18 09:16 50.03587 8.53344 338 ft 22 kts 249°
2026-04-18 09:16 50.03543 8.53158 335 ft 16 kts 250°
2026-04-18 09:16 50.03489 8.53055 334 ft 9 kts 201°
2026-04-18 09:17 50.03493 8.52991 333 ft 7 kts 282°
2026-04-18 09:17 50.03481 8.52901 335 ft 11 kts 246°
2026-04-18 09:17 50.03449 8.52790 336 ft 11 kts 246°
2026-04-18 09:17 50.03432 8.52727 334 ft 0 kts 252°
2026-04-18 09:18 50.03432 8.52725 334 ft 1 kts 252°
2026-04-18 09:18 50.03426 8.52700 334 ft 5 kts 249°
2026-04-18 09:18 50.03410 8.52637 334 ft 7 kts 249°
2026-04-18 09:18 50.03376 8.52593 333 ft 7 kts 176°
2026-04-18 09:19 50.03359 8.52594 334 ft 0 kts 181°
2026-04-18 09:20 50.03322 8.52593 336 ft 23 kts 179°
2026-04-18 09:20 50.02856 8.52598 336 ft 106 kts 180°
2026-04-18 09:20 50.01894 8.52606 335 ft 168 kts 179°
2026-04-18 09:21 50.00654 8.52624 868 ft 178 kts 179°
2026-04-18 09:21 49.99400 8.52641 1684 ft 183 kts 180°
2026-04-18 09:21 49.98049 8.52674 2234 ft 205 kts 179°
2026-04-18 09:21 49.96528 8.52744 2661 ft 233 kts 179°
2026-04-18 09:22 49.94871 8.52838 3615 ft 234 kts 179°
2026-04-18 09:22 49.93255 8.52951 4761 ft 232 kts 179°
2026-04-18 09:22 49.91624 8.53079 5767 ft 237 kts 178°
2026-04-18 09:22 49.89973 8.53219 6828 ft 239 kts 178°
2026-04-18 09:23 49.88302 8.53383 7807 ft 243 kts 177°
2026-04-18 09:23 49.86599 8.53558 8780 ft 247 kts 178°
2026-04-18 09:23 49.84875 8.53721 9799 ft 250 kts 178°
2026-04-18 09:23 49.83125 8.53842 10689 ft 254 kts 179°
2026-04-18 09:24 49.81348 8.53956 11541 ft 258 kts 180°
2026-04-18 09:24 49.79535 8.54071 12395 ft 263 kts 180°
2026-04-18 09:24 49.77688 8.54107 13211 ft 269 kts 187°
2026-04-18 09:24 49.75747 8.53852 13614 ft 292 kts 188°
2026-04-18 09:25 49.73636 8.53557 13927 ft 317 kts 188°
2026-04-18 09:25 49.71356 8.53234 14153 ft 341 kts 188°
2026-04-18 09:25 49.68916 8.52893 14400 ft 362 kts 188°
2026-04-18 09:25 49.66375 8.52551 14976 ft 370 kts 188°
2026-04-18 09:26 49.64675 8.52328 15447 ft 373 kts 188°
2026-04-18 09:26 49.62077 8.51991 16154 ft 377 kts 188°
2026-04-18 09:26 49.59449 8.51653 16847 ft 381 kts 188°
2026-04-18 09:26 49.56794 8.51310 17117 ft 383 kts 188°
2026-04-18 09:27 49.54110 8.50963 17190 ft 397 kts 188°
2026-04-18 09:27 49.51321 8.50598 17194 ft 406 kts 188°
2026-04-18 09:27 49.48488 8.50230 17191 ft 409 kts 188°
2026-04-18 09:27 49.45650 8.49863 17194 ft 410 kts 188°
2026-04-18 09:28 49.42811 8.49495 17194 ft 410 kts 188°
2026-04-18 09:28 49.39970 8.49126 17191 ft 410 kts 188°
2026-04-18 09:28 49.37130 8.48754 17191 ft 410 kts 188°
2026-04-18 09:28 49.34287 8.48382 17192 ft 410 kts 187°
2026-04-18 09:29 49.31419 8.48358 17191 ft 414 kts 178°
2026-04-18 09:29 49.28573 8.49079 17189 ft 417 kts 168°
2026-04-18 09:29 49.25829 8.50580 17188 ft 421 kts 157°
2026-04-18 09:29 49.23277 8.52801 17187 ft 423 kts 149°
2026-04-18 09:30 49.20791 8.55213 17188 ft 423 kts 149°
2026-04-18 09:30 49.18258 8.57493 17187 ft 422 kts 156°
2026-04-18 09:30 49.15527 8.59051 17181 ft 418 kts 168°
2026-04-18 09:30 49.12710 8.60166 17189 ft 419 kts 168°
2026-04-18 09:31 49.09893 8.61310 17188 ft 418 kts 167°
2026-04-18 09:31 49.07135 8.62445 16879 ft 404 kts 167°
2026-04-18 09:31 49.04443 8.63554 16212 ft 398 kts 167°
2026-04-18 09:31 49.01784 8.64638 15513 ft 393 kts 167°
2026-04-18 09:32 48.99154 8.65700 14800 ft 389 kts 167°
2026-04-18 09:32 48.96552 8.66744 14098 ft 385 kts 167°
2026-04-18 09:32 48.93978 8.67769 13337 ft 380 kts 167°
2026-04-18 09:32 48.91439 8.68778 12622 ft 375 kts 167°
2026-04-18 09:33 48.88936 8.69773 11899 ft 369 kts 167°
2026-04-18 09:33 48.86471 8.70756 11185 ft 363 kts 167°
2026-04-18 09:33 48.84041 8.71725 10447 ft 358 kts 167°
2026-04-18 09:33 48.81653 8.72675 9795 ft 350 kts 166°
2026-04-18 09:34 48.79358 8.73588 9414 ft 334 kts 166°
2026-04-18 09:34 48.77145 8.74493 8893 ft 326 kts 163°
2026-04-18 09:34 48.75152 8.75817 8348 ft 320 kts 154°
2026-04-18 09:34 48.73183 8.77322 7759 ft 315 kts 154°
2026-04-18 09:35 48.71240 8.78814 7192 ft 312 kts 154°
2026-04-18 09:35 48.69362 8.80383 6640 ft 307 kts 144°
2026-04-18 09:35 48.67954 8.82776 5946 ft 307 kts 119°
2026-04-18 09:35 48.67165 8.85747 5258 ft 301 kts 106°
2026-04-18 09:36 48.66640 8.88778 4575 ft 295 kts 104°
2026-04-18 09:36 48.66157 8.91742 4121 ft 282 kts 104°
2026-04-18 09:36 48.65705 8.94511 4003 ft 260 kts 104°
2026-04-18 09:36 48.65295 8.97049 4009 ft 240 kts 104°
2026-04-18 09:37 48.64929 8.99488 3989 ft 236 kts 98°
2026-04-18 09:37 48.65099 9.01894 3755 ft 236 kts 73°
2026-04-18 09:37 48.65569 9.04316 3440 ft 242 kts 73°
2026-04-18 09:37 48.66027 9.06678 3126 ft 226 kts 73°
2026-04-18 09:38 48.66468 9.08974 2828 ft 230 kts 73°
2026-04-18 09:38 48.66891 9.11191 2528 ft 208 kts 73°
2026-04-18 09:38 48.67276 9.13205 2258 ft 190 kts 73°
2026-04-18 09:38 48.67583 9.14814 2049 ft 174 kts 73°
2026-04-18 09:39 48.67900 9.16479 1835 ft 154 kts 73°
2026-04-18 09:39 48.68180 9.17965 1599 ft 141 kts 74°
2026-04-18 09:39 48.68447 9.19348 1431 ft 141 kts 73°
2026-04-18 09:39 48.68708 9.20709 1292 ft 121 kts 75°
2026-04-18 09:40 48.68871 9.21598 1258 ft 52 kts 74°
2026-04-18 09:40 48.68968 9.22095 1246 ft 54 kts 73°
2026-04-18 09:40 48.69070 9.22594 1226 ft 17 kts 50°
2026-04-18 09:40 48.69105 9.22576 1226 ft 7 kts 299°
2026-04-18 09:41 48.69155 9.22527 1225 ft 9 kts 345°
2026-04-18 09:41 48.69194 9.22509 1225 ft 0 kts 340°
2026-04-18 09:41 48.69197 9.22507 1225 ft 1 kts 339°
2026-04-18 09:41 48.69217 9.22493 1225 ft 9 kts 342°
2026-04-18 09:42 48.69274 9.22459 1227 ft 7 kts 334°
2026-04-18 09:42 48.69288 9.22398 1229 ft 7 kts 261°
2026-04-18 09:42 48.69273 9.22324 1230 ft 7 kts 254°
2026-04-18 09:42 48.69259 9.22251 1231 ft 7 kts 253°
2026-04-18 09:43 48.69243 9.22171 1233 ft 9 kts 253°
2026-04-18 09:43 48.69227 9.22087 1236 ft 8 kts 253°
2026-04-18 09:43 48.69205 9.21971 1255 ft 12 kts 255°
2026-04-18 09:43 48.69184 9.21859 1249 ft 10 kts 253°
2026-04-18 09:44 48.69165 9.21758 1250 ft 10 kts 255°
2026-04-18 09:44 48.69152 9.21683 1255 ft 5 kts 255°
2026-04-18 09:44 48.69141 9.21626 1260 ft 16 kts 254°
2026-04-18 09:44 48.69110 9.21455 1262 ft 18 kts 255°
2026-04-18 09:45 48.69078 9.21286 1268 ft 15 kts 254°
2026-04-18 09:45 48.69051 9.21146 1272 ft 13 kts 253°
2026-04-18 09:45 48.69027 9.21024 1275 ft 11 kts 255°
2026-04-18 09:45 48.69009 9.20923 1278 ft 9 kts 254°
2026-04-18 09:46 48.68990 9.20826 1283 ft 11 kts 253°
2026-04-18 09:46 48.68963 9.20684 1283 ft 16 kts 255°